Location: *
(44.3925°N, 5.4708°E)
Time: 19:08:41
(UTC+00:00)

Cosmos 1544 - Pass Details

Date: 18 September 2019
Orbit: 475 x 491 km, 82.5° (Epoch: 21 October)

Event Time Altitude Azimuth Distance (km) Brightness Sun altitude
Rises 19:12:55 0° 203° (SSW) 2,512 6.7 -16.4°
Reaches altitude 10° 19:15:04 10° 211° (SSW) 1,640 5.9 -16.8°
Maximum altitude 19:18:29 41° 283° (WNW) 706 4.4 -17.3°
Drops below altitude 10° 19:21:56 10° 354° (N) 1,659 6.1 -17.9°
Sets 19:24:07 0° 2° (N) 2,545 7.0 -18.3°
